FW9359 Weather Reports


time (UTC)temp
C
wind
direction
speed
KPH
gust
KPH
rain 1hr
cm
rain 24hr
cm
rain mn
cm
humidity
%
barometer
mb
20260504024438 16 183 3.2 3.2 0.00 0.00 0.00 57 1010.6
20260504023934 16 204 3.2 3.2 0.00 0.00 0.00 56 1010.7
20260504023431 16 162 3.2 3.2 0.00 0.00 0.00 56 1010.4
20260504022927 16 200 1.6 1.6 0.00 0.00 0.00 55 1010.6
20260504022423 16 203 3.2 3.2 0.00 0.00 0.00 54 1010.6
20260504021920 17 217 1.6 1.6 0.00 0.00 0.00 54 1010.5
20260504021417 17 193 0.0 0.0 0.00 0.00 0.00 55 1010.6
20260504020914 17 183 3.2 3.2 0.00 0.00 0.00 54 1010.4
20260504020411 17 186 3.2 3.2 0.00 0.00 0.00 53 1010.3
20260504015908 17 186 3.2 3.2 0.00 0.00 0.00 53 1010.4
20260504015404 17 180 4.8 9.7 0.00 0.00 0.00 53 1010.4
20260504014900 17 165 3.2 3.2 0.00 0.00 0.00 52 1010.1
20260504014356 17 181 1.6 3.2 0.00 0.00 0.00 52 1010.2
20260504013853 17 190 3.2 3.2 0.00 0.00 0.00 52 1010.0
20260504013351 17 214 6.4 8.0 0.00 0.00 0.00 51 1009.7
20260504012847 17 212 3.2 3.2 0.00 0.00 0.00 51 1010.1
20260504012345 18 186 3.2 3.2 0.00 0.00 0.00 51 1009.7
20260504011843 17 194 6.4 8.0 0.00 0.00 0.00 50 1009.7
20260504011339 18 192 1.6 3.2 0.00 0.00 0.00 50 1009.7
20260504010835 18 200 1.6 1.6 0.00 0.00 0.00 49 1010.0
20260504010331 18 203 4.8 4.8 0.00 0.00 0.00 49 1009.8
20260504005827 18 189 8.0 9.7 0.00 0.00 0.00 48 1009.8
20260504005324 18 163 3.2 3.2 0.00 0.00 0.00 49 1009.9
20260504004822 18 201 1.6 1.6 0.00 0.00 0.00 49 1009.7
20260504004319 18 193 4.8 4.8 0.00 0.00 0.00 48 1009.7
20260504003815 18 144 3.2 3.2 0.00 0.00 0.00 47 1010.1
20260504003313 18 211 11.3 14.5 0.00 0.00 0.00 47 1009.8
20260504002809 19 184 3.2 4.8 0.00 0.00 0.00 46 1009.8
20260504002306 19 182 3.2 4.8 0.00 0.00 0.00 46 1009.9
20260504001804 19 169 4.8 8.0 0.00 0.00 0.00 45 1009.6
20260504001301 20 242 4.8 9.7 0.00 0.00 0.00 45 1009.6
20260504000758 20 182 8.0 14.5 0.00 0.00 0.00 44 1009.8
20260504000254 20 173 6.4 9.7 0.00 0.00 0.00 44 1010.1
20260503235753 20 169 6.4 9.7 0.00 0.00 0.00 45 1009.6
20260503235250 20 194 4.8 4.8 0.00 0.00 0.00 44 1009.7
20260503234747 19 190 14.5 16.1 0.00 0.00 0.00 44 1009.7
20260503234245 19 197 4.8 9.7 0.00 0.00 0.00 44 1009.9
20260503233742 19 185 4.8 4.8 0.00 0.00 0.00 45 1009.8
20260503233238 19 202 4.8 8.0 0.00 0.00 0.00 44 1009.8
20260503232735 20 211 4.8 8.0 0.00 0.00 0.00 43 1009.9
20260503232232 19 203 6.4 8.0 0.00 0.00 0.00 43 1010.0
20260503231730 19 245 16.1 17.7 0.00 0.00 0.00 43 1010.1
20260503231226 19 185 14.5 20.9 0.00 0.00 0.00 43 1010.1
20260503230722 19 212 9.7 12.9 0.00 0.00 0.00 43 1010.0
20260503230220 19 249 9.7 12.9 0.00 0.00 0.00 43 1010.0
20260503225718 19 165 4.8 8.0 0.00 0.00 0.00 43 1010.2
20260503225217 19 201 6.4 9.7 0.00 0.00 0.00 43 1010.2
20260503224715 19 218 8.0 9.7 0.00 0.00 0.00 43 1010.4
20260503224213 19 211 6.4 9.7 0.00 0.00 0.00 43 1010.5
20260503223710 19 190 17.7 22.5 0.00 0.00 0.00 42 1010.6
20260503223207 19 205 6.4 8.0 0.00 0.00 0.00 43 1010.5
20260503222704 19 226 6.4 9.7 0.00 0.00 0.00 43 1010.5
20260503222201 19 225 8.0 14.5 0.00 0.00 0.00 42 1010.9
20260503221700 19 212 16.1 22.5 0.00 0.00 0.00 42 1010.6
20260503221157 19 187 14.5 22.5 0.00 0.00 0.00 42 1010.9
20260503220654 19 225 8.0 11.3 0.00 0.00 0.00 42 1010.9
20260503220150 20 138 8.0 12.9 0.00 0.00 0.00 41 1011.1
20260503215647 20 220 19.3 32.2 0.00 0.00 0.00 41 1010.9
20260503215143 19 191 8.0 9.7 0.00 0.00 0.00 41 1011.1
20260503214643 19 189 19.3 29.0 0.00 0.00 0.00 40 1011.1
20260503214138 19 160 12.9 20.9 0.00 0.00 0.00 41 1010.8
20260503213632 19 173 8.0 11.3 0.00 0.00 0.00 41 1011.2
20260503213128 20 129 6.4 8.0 0.00 0.00 0.00 39 1010.9
20260503212625 20 172 3.2 4.8 0.00 0.00 0.00 39 1010.8
20260503212123 20 185 12.9 22.5 0.00 0.00 0.00 38 1011.3
20260503211620 19 172 6.4 9.7 0.00 0.00 0.00 39 1011.1
20260503211116 19 189 17.7 27.4 0.00 0.00 0.00 39 1011.3
20260503210612 19 191 12.9 20.9 0.00 0.00 0.00 39 1011.6
20260503210109 18 185 4.8 9.7 0.00 0.00 0.00 39 1011.4
20260503205605 18 224 14.5 17.7 0.00 0.00 0.00 39 1011.7
20260503205101 18 193 19.3 25.7 0.00 0.00 0.00 39 1011.8
20260503204558 18 254 6.4 9.7 0.00 0.00 0.00 41 1011.7
20260503204056 18 195 14.5 25.7 0.00 0.00 0.00 42 1012.0
20260503203552 17 188 6.4 8.0 0.00 0.00 0.00 43 1012.0
20260503203050 17 205 12.9 17.7 0.00 0.00 0.00 43 1012.0
20260503202547 17 220 14.5 17.7 0.00 0.00 0.00 43 1012.1
20260503202045 17 183 12.9 17.7 0.00 0.00 0.00 43 1012.6
20260503201543 18 185 17.7 27.4 0.00 0.00 0.00 43 1012.7
20260503201040 18 242 20.9 27.4 0.00 0.00 0.00 43 1012.8
20260503200536 17 202 12.9 16.1 0.00 0.00 0.00 47 1012.8
20260503200033 17 201 8.0 14.5 0.00 0.00 0.00 49 1012.8
20260503195530 17 230 4.8 4.8 0.00 0.00 0.00 49 1012.8
20260503195027 17 194 14.5 20.9 0.00 0.00 0.00 49 1012.9
20260503194525 17 151 17.7 24.1 0.00 0.00 0.00 48 1013.2
20260503194024 16 204 17.7 29.0 0.00 0.00 0.00 50 1013.1
20260503193521 16 212 14.5 27.4 0.00 0.00 0.00 50 1013.2
20260503193016 16 245 6.4 9.7 0.00 0.00 0.00 48 1013.3
20260503192512 16 201 9.7 12.9 0.00 0.00 0.00 49 1013.2
20260503192008 15 197 4.8 4.8 0.00 0.00 0.00 50 1013.4
20260503191506 15 210 11.3 16.1 0.00 0.00 0.00 50 1013.5
20260503191002 15 173 19.3 25.7 0.00 0.00 0.00 49 1013.4
20260503190459 15 189 12.9 25.7 0.00 0.00 0.00 52 1013.9
20260503185956 15 207 19.3 27.4 0.00 0.00 0.00 51 1013.8
20260503185452 14 235 12.9 20.9 0.00 0.00 0.00 52 1013.8
20260503184952 15 171 22.5 29.0 0.00 0.00 0.00 53 1014.0
20260503184448 14 140 9.7 14.5 0.00 0.00 0.00 55 1013.9
20260503183945 15 173 12.9 17.7 0.00 0.00 0.00 55 1014.0
20260503183442 13 240 11.3 16.1 0.00 0.00 0.00 56 1014.0
20260503182938 13 189 17.7 22.5 0.00 0.00 0.00 57 1014.1
20260503182437 12 175 17.7 24.1 0.00 0.00 0.00 58 1014.4
20260503181935 12 173 12.9 16.1 0.00 0.00 0.00 59 1014.6
20260503181432 12 203 16.1 27.4 0.00 0.00 0.00 59 1014.7
20260503180927 12 205 16.1 32.2 0.00 0.00 0.00 59 1015.0
20260503180427 12 103 6.4 11.3 0.00 0.00 0.00 60 1015.1
20260503175922 12 197 8.0 9.7 0.00 0.00 0.00 60 1015.4
20260503175421 12 207 14.5 22.5 0.00 0.00 0.00 60 1015.5
20260503174916 12 201 11.3 16.1 0.00 0.00 0.00 60 1015.8
20260503174414 12 183 11.3 16.1 0.00 0.00 0.00 60 1015.9
20260503173909 12 205 12.9 20.9 0.00 0.00 0.00 61 1016.0
20260503173405 12 253 11.3 11.3 0.00 0.00 0.00 63 1016.0
20260503172902 12 3 9.7 20.9 0.00 0.00 0.00 63 1016.1
20260503172400 12 197 4.8 8.0 0.00 0.00 0.00 65 1016.2
20260503171855 12 217 11.3 20.9 0.00 0.00 0.00 65 1016.6
20260503171352 11 176 6.4 9.7 0.00 0.00 0.00 66 1016.7
20260503170850 11 207 14.5 17.7 0.00 0.00 0.00 67 1016.5
20260503170346 11 221 4.8 4.8 0.00 0.00 0.00 70 1017.0
20260503150738 12 199 4.8 4.8 0.00 0.00 0.00 55 1017.5
20260503150234 12 224 9.7 14.5 0.00 0.00 0.00 55 1017.5
20260503140159 12 182 6.4 9.7 0.00 0.00 0.00 53 1018.1
20260503131129 11 154 9.7 12.9 0.00 0.00 0.00 54 1018.4
20260503130626 11 188 4.8 8.0 0.00 0.00 0.00 54 1018.6
20260503130124 11 155 4.8 4.8 0.00 0.00 0.00 53 1018.6
20260503110516 9 164 6.4 9.7 0.00 0.00 0.00 55 1018.0
20260503090408 7 176 4.8 4.8 0.00 0.00 0.00 55 1018.6
20260503081335 7 206 4.8 8.0 0.00 0.00 0.00 56 1018.9
20260503080832 7 195 1.6 1.6 0.00 0.00 0.00 57 1018.9
20260503080329 7 180 1.6 3.2 0.00 0.00 0.00 56 1018.9
20260503072805 7 193 3.2 3.2 0.00 0.00 0.00 56 1019.1
20260503072305 7 208 3.2 3.2 0.00 0.00 0.00 56 1019.0
20260503071758 7 201 1.6 1.6 0.00 0.00 0.00 56 1019.2
20260503071255 7 176 1.6 3.2 0.00 0.00 0.00 56 1019.0
20260503070752 7 187 1.6 3.2 0.00 0.00 0.00 56 1019.1
20260503070250 7 204 1.6 3.2 0.00 0.00 0.00 56 1019.3
20260503060215 7 190 1.6 3.2 0.00 0.00 0.00 57 1019.7
20260503054702 7 205 1.6 1.6 0.00 0.00 0.00 58 1020.0
20260503054159 7 183 1.6 1.6 0.00 0.00 0.00 58 1019.8
20260503053657 7 196 3.2 3.2 0.00 0.00 0.00 57 1019.7
20260503053155 8 201 1.6 1.6 0.00 0.00 0.00 57 1019.7
20260503052651 7 189 1.6 1.6 0.00 0.00 0.00 56 1019.8
20260503052148 8 189 0.0 0.0 0.00 0.00 0.00 57 1020.0
20260503051643 8 181 4.8 4.8 0.00 0.00 0.00 56 1019.9
20260503051141 8 191 1.6 1.6 0.00 0.00 0.00 56 1020.0
20260503050637 7 197 0.0 0.0 0.00 0.00 0.00 57 1020.1
20260503050134 8 189 0.0 0.0 0.00 0.00 0.00 56 1020.3
20260503045632 8 199 1.6 1.6 0.00 0.00 0.00 57 1020.2
20260503045129 8 199 1.6 1.6 0.00 0.00 0.00 57 1020.3
20260503044625 8 194 1.6 3.2 0.00 0.00 0.00 57 1020.4
20260503044123 8 202 0.0 1.6 0.00 0.00 0.00 57 1020.3
20260503043619 8 191 1.6 1.6 0.00 0.00 0.00 56 1020.2
20260503043116 8 193 0.0 0.0 0.00 0.00 0.00 57 1020.2
20260503042613 8 204 1.6 3.2 0.00 0.00 0.00 55 1020.4
20260503042109 8 186 0.0 1.6 0.00 0.00 0.00 57 1020.2
20260503041605 8 199 0.0 0.0 0.00 0.00 0.00 58 1020.3
20260503041104 8 196 3.2 4.8 0.00 0.00 0.00 57 1020.3
20260503040600 8 188 0.0 0.0 0.00 0.00 0.00 59 1020.4
20260503040057 8 178 1.6 1.6 0.00 0.00 0.00 57 1020.4
20260503035554 8 182 0.0 1.6 0.00 0.00 0.00 58 1020.2
20260503035052 8 182 1.6 1.6 0.00 0.00 0.00 59 1020.3
20260503034549 8 191 0.0 0.0 0.00 0.00 0.00 59 1020.5
20260503034046 7 192 0.0 0.0 0.00 0.00 0.00 61 1020.3
20260503033543 8 190 1.6 1.6 0.00 0.00 0.00 59 1020.2
20260503033041 8 198 0.0 1.6 0.00 0.00 0.00 59 1020.5
20260503032539 7 192 1.6 1.6 0.00 0.00 0.00 62 1020.3
20260503032037 7 171 1.6 1.6 0.00 0.00 0.00 66 1020.5
20260503031535 6 53 0.0 0.0 0.00 0.00 0.00 69 1020.7
20260503031031 6 53 0.0 0.0 0.00 0.00 0.00 72 1020.6
20260503030527 6 53 0.0 0.0 0.00 0.00 0.00 75 1020.6
20260503030025 6 53 0.0 0.0 0.00 0.00 0.00 78 1020.5
20260503025521 6 53 0.0 0.0 0.00 0.00 0.00 78 1020.8
20260503025020 6 53 0.0 0.0 0.00 0.00 0.00 78 1020.7